Home > Time Zones > World Clock > Weather > Macau > Macau > Past weeks

Flag for Macau Weather past 2 weeks in Macau, Macau

Now
84 °F

Scattered clouds.


Feels Like: 98 °F
Forecast: 82 / 88 °F
Wind: 7 mph from South

Location: Taipa

Current Time: May 26, 2015 at 2:21:46 PM

Latest Report: May 26, 2015 at 2:00 PM


Visibility: N/A

Pressure: 29.74 "Hg

Humidity: 89%

Dew point: 81 °F

Location of MacauLocation

Historic Weather in Macau — Graph

°F

Macau temperature yesterday

Maximum temperature yesterday: 88 °F (at 12:30 PM)
Minimum temperature yesterday: 77 °F (at 12:00 AM)
Average temperature yesterday: 81 °F

Past Weeks' High & Low Weather Summary

 TemperatureHumidityPressure
High88 °F (May 15, 12:30 PM)100% (May 11, 8:30 PM)29.95 "Hg (May 11, 8:30 PM)
Low72 °F (May 12, 4:30 AM)51% (May 12, 3:30 PM)29.62 "Hg (May 23, 4:30 PM)
Average80 °F89%29.77 "Hg
* Reported May 11 1:00 PM — May 26 1:00 PM, Macau, Weather by CustomWeather, © 2015

Note: Actual official high and low records may vary slightly from our data, if they occured in-between our weather recording intervals... More about our weather records

Advertising

Macau weather history for previous 24 hours

 ConditionsComfort  
Time TempWeatherWind HumidityBarometerVisibility
1:00 PM
Tue, May 26
82 °FScattered clouds.8 mph89%29.74 "HgN/A
12:30 PM82 °FScattered clouds.9 mph89%29.74 "HgN/A
12:00 PM81 °FScattered clouds.10 mph89%29.77 "HgN/A
11:30 AM81 °FSprinkles. Scattered clouds.10 mph89%29.77 "HgN/A
10:30 AM79 °FThunderstorms. Scattered clouds.10 mph94%29.77 "Hg2 mi
10:00 AM79 °FThundershowers. Scattered clouds.15 mph89%29.77 "HgN/A
9:30 AM82 °FSprinkles. Scattered clouds.10 mph94%29.77 "Hg4 mi
9:00 AM82 °FSprinkles. Scattered clouds.10 mph94%29.77 "Hg4 mi
8:30 AM82 °FScattered clouds.6 mph94%29.77 "Hg4 mi
8:00 AM81 °FSprinkles. Scattered clouds.6 mph100%29.77 "Hg4 mi
7:30 AM82 °FScattered clouds.8 mph94%29.77 "Hg4 mi
7:00 AM81 °FScattered clouds.8 mph100%29.77 "Hg4 mi
6:30 AM81 °FScattered clouds.8 mph100%29.74 "Hg4 mi
6:00 AM81 °FScattered clouds.9 mph100%29.74 "Hg4 mi
5:00 AM82 °FPassing clouds.9 mph94%29.74 "Hg6 mi
4:30 AM81 °FPassing clouds.9 mph100%29.71 "Hg5 mi
4:00 AM81 °FPassing clouds.10 mph100%29.71 "Hg5 mi
3:30 AM81 °FPassing clouds.6 mph94%29.74 "Hg5 mi
3:00 AM81 °FPassing clouds.5 mph100%29.74 "Hg5 mi
2:30 AM81 °FPassing clouds.8 mph94%29.74 "Hg5 mi
2:00 AM81 °FPassing clouds.8 mph94%29.74 "HgN/A
1:30 AM81 °FPassing clouds.5 mph94%29.74 "Hg6 mi
1:00 AM82 °FPassing clouds.6 mph94%29.74 "Hg6 mi
12:30 AM82 °FPassing clouds.7 mph94%29.74 "HgN/A
12:00 AM81 °FPassing clouds.6 mph100%29.74 "HgN/A
11:30 PM
Mon, May 25
82 °FSprinkles. Passing clouds.6 mph94%29.77 "Hg5 mi
11:00 PM82 °FSprinkles. Passing clouds.5 mph94%29.77 "HgN/A
10:30 PM81 °FSprinkles. Passing clouds.2 mph94%29.77 "HgN/A
10:00 PM82 °FSprinkles. Passing clouds.6 mph94%29.74 "HgN/A
9:30 PM82 °FSprinkles. Passing clouds.6 mph94%29.74 "HgN/A
9:00 PM82 °FSprinkles. Passing clouds.7 mph94%29.74 "HgN/A
8:30 PM82 °FThundershowers. Passing clouds.7 mph89%29.74 "HgN/A
8:00 PM82 °FThunderstorms. Passing clouds.2 mph89%29.74 "HgN/A
7:30 PM81 °FThunderstorms. Passing clouds.5 mph94%29.71 "Hg5 mi
7:00 PM81 °FRain showers. Broken clouds.9 mph94%29.71 "Hg2 mi
6:30 PM82 °FScattered clouds.10 mph89%29.71 "HgN/A
6:00 PM82 °FScattered clouds.13 mph89%29.68 "HgN/A
5:30 PM82 °FPassing clouds.8 mph84%29.65 "HgN/A
5:00 PM82 °FScattered clouds.13 mph84%29.65 "HgN/A
4:30 PM84 °FScattered clouds.14 mph84%29.65 "HgN/A
4:00 PM88 °FScattered clouds.12 mph79%29.65 "HgN/A
3:30 PM88 °FPassing clouds.12 mph75%29.68 "HgN/A
3:00 PM86 °FPassing clouds.10 mph79%29.68 "HgN/A
2:30 PM86 °FPassing clouds.9 mph79%29.68 "HgN/A
2:00 PM86 °FPassing clouds.9 mph79%29.68 "HgN/A
Weather by CustomWeather, © 2015

See weather overviewHow to use our weather pages